Presure
108 139 124 127 126 128 115 108 117 105 116 130 114 130 133 125 106 129 113 123 128 128 108 107 116 149 105 121 90 118 125 104 142 151 130 150 144 175 161 154 192 185 189 198 187
105 122 134 135 127 123 117 97 115 114 132 144 129 124 127 108 123 110 122 122 111 131 110 120 130 119 126 108 143 139 143 138 130 164 123 140 168 184 187 180 148 180 192 188 184
142 160 152 134 142 136 138 135 128 129 126 126 123 113 135 137 120 139 108 123 149 134 146 114 126 143 132 117 103 149 153 131 148 172 118 145 165 185 165 162 186 189 179 180 185
135 139 142 144 150 145 103 147 126 132 133 136 120 147 102 124 102 111 134 133 126 140 127 114 137 152 141 121 133 119 119 164 195 170 145 119 171 181 184 169 184 186 181 172 187
128 134 127 136 121 137 142 152 148 124 126 133 133 125 105 96 112 121 132 134 136 133 151 143 116 96 135 99 140 105 126 86 101 185 187 173 161 174 184 179 184 187 186 180 181
160 156 143 135 95 128 143 146 140 126 112 152 139 139 140 99 143 148 124 136 108 142 143 124 144 140 157 179 128 150 129 147 133 104 160 182 179 200 181 186 180 180 182 174 177
121 144 138 167 118 141 142 121 154 125 132 111 145 153 150 160 129 116 145 136 129 141 106 111 113 145 88 129 178 156 186 195 135 187 192 185 195 187 189 197 185 176 173 168 171
116 146 120 121 141 144 148 111 95 151 135 158 151 111 113 130 121 164 109 106 151 128 134 123 110 130 197 145 144 145 101 107 104 204 184 196 190 170 159 187 186 180 170 166 177
141 134 133 137 137 136 143 93 119 125 147 132 156 104 127 115 154 108 157 138 99 131 160 177 161 178 101 171 170 196 174 153 186 176 188 187 186 183 199 179 193 185 178 171 171
101 158 150 126 138 118 141 126 139 129 136 111 143 113 131 117 129 110 127 114 142 159 134 156 142 181 178 160 184 200 201 199 199 188 185 192 184 206 188 194 185 200 167 168 177
111 128 130 109 136 106 151 91 96 151 113 163 147 116 117 150 132 123 111 161 146 191 140 150 166 170 152 169 192 198 187 179 178 192 200 170 193 201 193 187 191 191 189 171 167
144 167 135 173 149 133 142 139 139 159 133 145 130 110 134 166 148 108 127 108 187 96 134 139 159 150 195 191 196 197 195 191 187 196 190 169 195 187 197 199 191 179 185 171 171
187 174 147 172 125 178 152 140 129 131 161 108 144 162 131 103 137 188 148 157 191 192 141 147 189 187 203 164 200 196 193 185 198 200 176 185 199 177 176 190 173 195 190 179 174
160 146 170 135 125 157 127 132 120 162 160 157 134 129 180 176 161 173 171 183 181 206 204 203 205 202 215 199 199 199 182 188 196 188 192 182 189 175 190 193 201 197 178 168 184
192 192 171 106 138 149 161 111 137 140 165 110 174 150 168 170 144 149 99 187 175 168 185 166 206 198 193 191 191 192 179 181 187 188 193 174 207 190 204 199 175 174 183 182 185
205 203 191 187 132 157 190 169 160 127 158 176 117 121 184 172 113 163 108 183 185 184 195 187 145 191 193 191 194 182 196 185 192 173 186 183 206 192 192 186 186 170 180 181 181
211 209 196 155 120 174 176 147 187 176 156 186 191 179 177 171 133 177 187 172 184 170 187 203 197 195 197 191 183 196 187 184 181 189 170 177 194 191 191 191 187 182 171 174 178
210 220 194 181 153 171 181 191 185 154 190 183 197 181 174 180 160 178 181 203 193 201 195 185 170 164 219 205 190 177 186 174 177 194 180 167 194 181 190 197 188 171 167 161 182
210 222 196 174 186 186 191 191 199 139 194 153 177 181 150 153 178 187 182 170 185 183 197 165 181 191 199 185 185 172 168 175 183 187 187 186 182 199 192 177 181 188 176 186 166
212 215 202 174 182 190 168 186 178 188 161 197 190 191 190 188 152 177 191 187 184 195 191 182 181 194 178 188 180 181 174 180 184 174 182 172 182 196 186 184 178 183 183 190 176
214 213 192 195 180 184 192 191 187 178 188 185 187 185 170 176 184 182 160 187 197 183 188 193 192 192 184 176 174 174 180 177 174 187 179 183 193 183 187 184 182 187 141 192 183
223 210 197 190 195 199 188 181 190 177 176 190 183 186 178 179 177 176 175 188 192 188 181 190 196 186 185 183 176 184 181 187 190 180 187 175 205 171 196 186 189 189 198 195 189
240 223 205 193 196 197 190 195 196 193 194 183 190 187 180 182 182 181 187 196 188 189 192 177 193 187 180 171 183 177 172 176 171 174 182 176 177 170 184 178 186 184 186 197 198
226 215 208 194 183 199 197 191 200 187 202 189 185 187 178 181 177 184 175 190 186 182 178 175 180 189 178 184 184 179 179 175 194 196 184 191 193 170 175 191 201 191 199 189 187
227 232 217 208 207 200 208 198 200 190 207 189 188 188 184 183 176 173 191 189 180 176 182 183 192 188 177 187 187 184 193 187 168 179 186 181 184 178 182 196 184 213 183 167 186
228 234 210 227 213 212 207 199 198 181 212 193 178 184 183 180 183 174 192 186 179 189 196 185 190 185 186 184 186 183 178 177 179 181 184 177 185 170 187 186 181 185 192 171 205
242 218 220 211 205 208 219 210 207 205 196 189 187 182 186 183 183 176 192 177 170 177 184 180 182 176 183 181 186 172 178 177 171 166 169 174 184 185 192 184 174 187 187 195 177
Wind_Speed
60 66 62 59 57 57 55 51 52 47 48 48 46 45 46 45 46 46 46 46 43 46 40 46 50 47 40 57 26 56 56 39 54 57 58 62 31 52 57 47 40 42 33 30 32
53 62 68 65 58 57 55 55 53 54 53 55 46 45 46 44 46 45 47 44 50 48 52 51 51 52 52 40 48 50 55 51 57 54 61 63 57 42 45 43 34 43 36 30 32
81 77 76 69 72 66 65 62 57 58 49 45 43 45 50 51 48 52 48 45 52 53 53 47 52 52 50 47 51 56 50 56 53 53 60 60 56 41 58 55 33 34 38 39 30
82 79 77 76 74 70 61 67 57 57 56 57 51 55 34 48 47 51 48 49 53 54 51 60 57 59 51 57 50 55 60 54 47 53 61 60 50 44 42 54 34 39 33 42 31
70 80 72 72 59 72 72 71 69 57 58 50 53 47 54 40 53 52 52 50 55 51 58 58 46 35 52 39 57 46 57 27 44 49 46 53 57 51 43 46 37 34 32 33 31
92 90 84 74 46 64 71 69 73 60 55 67 60 57 62 44 58 63 48 53 54 55 57 55 59 63 57 66 59 57 62 53 62 48 60 48 48 36 41 40 38 33 32 36 34
58 92 88 89 64 73 77 55 76 55 59 57 63 65 66 73 55 58 58 53 54 59 56 55 57 62 32 42 62 61 55 55 41 47 43 45 43 37 36 29 36 35 38 40 42
67 95 63 57 79 85 79 65 45 78 63 74 68 50 66 59 62 78 52 45 62 58 60 63 60 60 52 59 61 61 47 52 36 39 48 41 45 44 55 36 36 36 39 41 38
95 86 77 86 74 72 77 44 59 68 75 69 74 64 70 56 71 57 73 62 42 58 60 71 66 62 51 64 72 61 64 49 53 52 47 47 48 45 35 42 37 32 35 43 40
64 102 95 68 89 71 84 63 74 63 72 59 68 65 72 60 65 58 58 55 62 66 58 61 68 60 66 68 69 58 48 48 49 47 46 44 51 43 37 37 41 27 38 42 49
74 81 79 72 88 70 87 38 53 87 68 86 73 65 62 80 68 60 60 72 68 63 61 61 71 75 70 57 61 52 53 55 57 46 40 44 48 48 40 36 39 30 26 39 49
89 100 91 103 99 81 90 87 82 93 72 82 74 68 74 85 74 62 66 57 79 43 59 64 71 69 59 57 55 54 51 49 55 47 36 45 41 50 46 35 34 39 33 41 46
99 105 90 106 79 100 91 90 78 73 95 68 80 79 74 61 62 78 76 76 77 74 66 63 64 70 56 60 51 53 50 53 46 47 44 37 36 45 50 43 38 34 30 37 42
112 83 102 89 80 95 78 83 68 102 93 89 72 71 89 90 77 85 87 87 80 66 62 59 59 59 55 49 50 46 56 51 48 45 44 38 35 48 45 46 38 33 39 45 35
117 117 106 57 91 91 93 74 89 81 87 76 96 84 93 87 74 71 26 85 81 79 73 72 52 55 58 56 52 49 56 52 48 46 44 48 40 48 39 37 41 42 39 38 39
118 117 115 113 80 99 106 112 95 66 81 93 65 64 91 97 58 82 50 72 81 78 68 68 64 61 60 59 57 56 49 53 52 49 45 53 39 35 37 26 36 44 39 40 42
119 120 115 90 86 108 113 100 120 99 86 93 89 96 98 99 70 93 91 86 79 78 71 61 61 59 59 59 60 53 53 56 54 55 47 50 43 37 39 33 33 34 43 44 45
120 120 118 118 111 113 116 105 123 91 94 97 91 93 101 98 91 95 88 72 74 68 68 69 73 75 55 55 57 56 55 57 61 58 52 59 50 40 42 37 36 38 44 49 45
125 119 121 117 119 120 119 121 104 84 101 95 101 99 86 88 97 98 93 84 80 70 62 76 63 64 55 58 60 60 58 65 59 60 59 62 57 53 45 43 44 50 52 52 43
127 120 123 123 123 123 119 120 111 106 94 102 95 96 94 97 80 87 87 80 83 70 68 70 69 62 65 60 65 63 64 63 64 62 61 62 59 55 53 54 50 57 57 56 47
135 125 120 123 130 134 126 115 113 113 106 110 100 98 97 99 96 96 81 81 72 77 74 67 61 59 65 67 71 67 66 68 68 68 66 65 61 62 61 61 62 65 39 59 60
142 125 125 128 136 136 123 115 117 114 111 110 106 101 99 97 97 95 93 83 82 82 77 71 61 62 65 67 73 71 70 70 68 63 63 61 52 61 60 60 67 67 63 68 68
141 129 129 133 142 131 121 122 121 118 114 113 106 104 105 98 96 94 91 84 83 81 69 78 66 66 70 73 72 74 68 64 61 65 65 62 58 58 63 65 67 56 59 67 71
135 135 137 137 130 127 127 122 118 116 114 111 108 106 103 102 94 93 95 88 86 85 84 80 76 71 75 76 75 79 80 68 72 69 70 75 70 63 62 79 73 65 70 64 64
138 141 140 144 141 127 128 126 122 116 109 108 109 107 105 101 99 94 91 91 93 87 88 85 76 76 80 80 80 79 77 76 60 74 74 75 82 74 79 84 65 88 56 54 82
138 140 136 141 137 131 127 126 118 108 104 107 107 109 106 104 101 96 91 96 95 95 86 84 81 81 83 84 82 79 78 74 75 78 78 80 86 77 88 88 70 74 89 68 97
143 136 141 134 129 132 122 114 106 112 107 109 114 110 107 103 101 98 92 98 94 97 92 88 84 87 86 89 87 60 79 76 66 66 73 81 91 94 96 89 68 94 90 97 66
Wind_Direction
253 253 250 249 250 253 256 249 259 263 256 262 258 262 264 264 269 268 270 270 273 274 276 289 280 287 305 290 300 297 298 310 300 306 307 306 291 311 310 314 303 300 304 295 294
253 250 254 252 249 247 247 263 251 254 262 259 262 259 262 270 265 267 269 278 273 275 280 279 278 279 284 289 293 293 307 297 299 306 305 306 311 300 298 305 308 301 305 297 292
251 249 249 255 254 255 254 254 255 255 258 257 256 266 265 266 271 270 274 265 283 278 288 279 278 284 281 300 305 298 304 299 302 307 306 304 307 298 311 307 301 294 300 301 293
253 254 253 252 252 253 249 254 252 253 256 260 253 263 267 262 280 269 270 272 279 280 272 276 284 291 284 284 288 290 295 304 309 306 303 308 307 301 295 308 298 293 298 297 298
254 256 246 253 239 258 257 255 256 254 259 258 258 258 260 272 263 267 278 272 274 277 284 283 280 300 284 305 290 303 290 302 308 305 307 306 306 299 295 298 293 299 301 294 293
245 248 253 253 249 251 254 252 254 247 249 258 258 261 264 274 269 272 267 274 270 280 282 276 285 286 286 293 290 296 289 300 293 309 301 302 304 286 296 287 288 299 294 292 291
243 246 251 248 244 252 256 237 253 254 259 245 260 263 265 267 267 262 271 273 274 279 277 282 281 288 286 288 289 296 299 297 298 304 294 301 289 293 288 280 280 285 285 290 287
241 247 249 236 255 254 247 235 253 255 261 259 261 266 263 267 265 271 273 278 274 271 272 273 278 279 282 280 291 292 302 303 300 293 298 292 288 293 297 277 276 281 280 285 289
244 255 247 252 241 249 252 250 249 248 256 252 260 252 264 259 265 264 275 272 277 276 275 278 282 285 296 286 290 282 296 295 293 298 294 295 293 292 283 281 272 273 281 277 277
248 245 247 251 254 241 255 255 257 254 261 261 260 255 265 250 267 270 267 274 277 277 282 283 288 282 281 288 284 290 288 287 285 289 293 292 291 295 282 277 279 268 277 279 286
228 252 252 233 255 234 251 253 261 255 250 255 258 261 252 265 263 263 261 273 273 279 279 282 279 279 289 279 282 285 287 288 290 287 282 291 295 292 282 282 277 273 257 265 274
238 240 249 242 247 253 253 252 255 254 260 258 260 250 266 262 267 268 269 274 274 288 277 278 281 284 282 282 283 284 281 278 287 282 288 288 287 288 289 282 273 277 265 269 271
231 237 241 242 252 243 248 255 257 258 254 248 258 258 262 256 266 263 263 269 271 275 274 279 277 283 278 281 276 276 276 283 281 278 289 289 294 280 286 288 282 273 264 261 276
239 234 235 248 237 243 252 254 254 250 250 256 260 261 257 259 264 263 265 267 270 273 274 278 277 277 275 276 273 271 282 282 277 289 288 293 290 280 281 280 277 276 265 272 275
224 228 236 252 248 247 241 248 251 249 245 247 253 261 259 260 262 265 267 265 269 272 276 277 277 280 283 279 280 278 286 284 283 287 291 292 286 283 286 285 278 276 281 280 283
220 223 226 230 245 239 235 246 245 255 254 247 259 258 253 257 265 265 259 268 270 274 277 278 275 275 270 279 281 283 271 282 281 289 295 287 302 296 286 281 280 282 290 290 293
218 220 222 232 234 238 237 247 242 246 248 244 243 247 251 256 258 259 262 267 268 274 275 266 270 274 273 271 278 271 283 287 292 288 289 296 299 288 291 281 282 287 284 290 298
218 219 220 227 244 240 238 239 241 245 240 242 241 244 251 251 263 261 261 265 265 267 268 273 274 276 260 265 275 284 284 289 289 291 294 287 297 293 291 297 292 276 280 282 296
217 216 218 226 227 230 234 238 240 249 242 251 244 245 256 261 257 259 262 267 268 268 269 270 274 276 276 278 279 285 288 283 295 291 293 295 294 289 299 296 298 298 289 298 287
216 214 215 231 227 228 243 236 243 243 249 246 243 243 248 252 254 260 263 266 267 267 267 271 274 272 276 274 281 281 286 291 290 291 295 292 295 303 303 301 297 298 296 297 298
215 213 217 218 228 230 229 231 236 244 242 247 248 245 252 254 258 260 264 266 268 269 269 269 273 268 274 280 279 285 285 286 286 287 297 301 300 301 294 292 292 288 289 296 295
214 211 217 221 224 226 228 233 231 242 246 242 247 248 251 251 257 261 265 265 265 267 271 272 270 273 270 272 279 279 281 277 281 290 287 289 287 288 287 294 286 289 294 293 295
212 211 214 220 224 226 228 229 230 232 236 242 241 245 249 251 254 261 262 261 263 267 267 273 271 271 273 277 275 277 280 285 286 289 287 284 290 288 297 296 294 299 305 301 297
210 211 214 220 232 224 226 231 230 233 235 239 241 243 250 251 256 256 262 260 263 267 270 272 273 267 274 271 274 278 279 285 286 291 291 302 300 286 293 304 301 305 303 302 303
209 210 214 218 223 224 223 227 229 231 232 236 239 242 245 249 253 256 257 255 264 267 266 268 264 269 273 272 272 275 278 285 288 297 299 297 299 300 299 304 303 306 302 286 306
209 211 215 217 220 223 223 226 230 238 231 234 244 243 245 247 249 253 251 255 262 263 262 266 267 270 272 274 275 279 284 292 295 294 297 298 301 295 303 305 305 309 310 291 306
208 214 215 218 221 223 221 224 227 229 230 233 237 242 243 247 249 253 250 256 262 263 264 268 269 274 273 275 277 283 287 289 291 297 298 298 297 299 300 304 302 310 308 308 298